Regional Weather Roundup
Issued by NWS Wakefield, VA

Home | Current Version | Previous Version | Graphics & Text | Print | Product List | Glossary On
Versions: 1 2 3 4 5 6 7 8 9 10 11 12 13 14 15 16 17 18 19 20 21 22 23 24 25 26 27 28 29 30 31 32 33 34 35 36 37 38 39 40 41 42 43 44 45 46 47 48 49 50
000
ASUS41 KAKQ 230114
RWRAKQ

REGIONAL WEATHER ROUNDUP
NATIONAL WEATHER SERVICE WAKEFIELD VA
900 PM EDT FRI MAY 22 2015

Note: "fair" indicates few or no clouds below 12,000 feet with no
significant weather and/or obstructions to visibility. * = Denotes
station may not report precipitation (e.g., rain,snow,etc.),
thunder or fog.

VAZ042-051-052>054-056-230200-
NORTHERN VIRGINIA

CITY           SKY/WX    TMP DP  RH WIND       PRES   REMARKS
WASH NATIONAL  PTCLDY    73  41  31 W14G20    30.15R
DULLES         PTCLDY    67  41  38 W7        30.16R
FORT BELVOIR   CLEAR     69  41  36 W7        30.15R
QUANTICO       PTCLDY    65  53  65 W6        30.17R
FREDERICKSBRG* PTCLDY    68  51  55 SW7       30.16R
STAFFORD*      MOCLDY    60  53  78 CALM      30.20R
WARRENTON      PTCLDY    57  52  83 CALM      30.17R
CULPEPER*      CLEAR     57  45  64 CALM      30.17R
MANASSAS*      CLEAR     64  45  48 W3        30.17R
LEESBURG*      CLEAR     66  45  45 W8        30.16R
WINCHESTER     CLEAR     66  36  32 W8G17     30.18R
FRONT ROYAL*   FAIR      64  43  45 W13       30.18R
LURAY*         FAIR      63  46  55 CALM      30.19R
$$

VAZ048-049-060>072-079>083-230200-
CENTRAL AND SOUTH CENTRAL VIRGINIA

CITY           SKY/WX    TMP DP  RH WIND       PRES   REMARKS
RICHMOND       PTCLDY    61  48  62 SW7       30.18R
CHESTERFIELD*  NOT AVBL
PETERSBURG*    CLEAR     55  53  91 CALM      30.20R
HANOVER        CLEAR     60  50  69 CALM      30.19R
TAPPAHANNOCK*  CLEAR     62  43  49 SW3       30.17R
QUINTON*       FAIR      63  50  61 S3        30.18R
CHARLOTTSVILLE CLEAR     66  39  37 NW5       30.18R
GORDONSVILLE*  FAIR      61  51  69 CALM      30.17R
ORANGE*        PTCLDY    63  50  63 CALM      30.19R
LOUISA*        CLEAR     61  52  72 CALM      30.17R
BUMPASS*       FAIR      59  51  73 CALM      30.17R
FARMVILLE*     CLEAR     60  49  68 CALM      30.18R
CREWE*         FAIR      57  51  81 CALM      30.20R
FORT PICKETT*  NOT AVBL
CHASE CITY*    FAIR      61  55  79 CALM      30.21R
CLARKSVILLE*   FAIR      55  54  94 CALM      30.21R
SOUTH HILL*    CLEAR     57  52  84 CALM      30.27R
LAWRENCEVILLE* FAIR      61  54  77 CALM      30.21R
EMPORIA*       CLEAR     52  48  87 CALM      30.23R
$$

VAZ088>098-230200-
SOUTHEAST VIRGINIA

CITY           SKY/WX    TMP DP  RH WIND       PRES   REMARKS
NORFOLK        CLEAR     65  44  46 SW3       30.20R
VIRGINIA BEACH PTCLDY    64  47  53 SW7       30.20R
NORFOLK NAVAL  PTCLDY    71  47  42 SW3       30.21R
WEST POINT*    CLEAR     68  47  47 S3        30.19S
SALUDA*        FAIR      63  49  60 SW5       30.17R
NEWPORT NEWS   CLEAR     68  48  48 SW6       30.19R
LANGLEY AFB    CLEAR     63  48  57 SW5       30.18R
FORT EUSTIS    CLEAR     67  51  55 SW3       30.17R
WILLIAMSBURG*  CLEAR     66  54  63 CALM      30.20R
HR EXEC AP*    FAIR      54  48  82 CALM      30.22R
FRANKLIN*      CLEAR     59  49  69 S3        30.21R
WAKEFIELD      CLEAR     59  53  80 CALM      30.20R
$$

VAZ020-022-025-037-045-230200-
WEST CENTRAL AND SOUTHWEST VIRGINIA

CITY           SKY/WX    TMP DP  RH WIND       PRES   REMARKS
STAUNTON*      CLOUDY    60  44  55 CALM      30.23R
WAYNESBORO*    FAIR      62  39  43 CALM      30.21R
HOT SPRINGS VA PTCLDY    54  37  53 W9        30.27S
LYNCHBURG      PTCLDY    62  44  51 SW5       30.22R
DANVILLE       CLEAR     58  50  75 CALM      30.22R
SOUTH BOSTON*  FAIR      60  50  69 CALM      30.21R
MARTINSVILLE   CLEAR     60  46  60 NW6       30.26R
ROANOKE        PTCLDY    62  40  44 W5        30.26R
BLACKSBURG     PTCLDY    56  43  61 CALM      30.31R
DUBLIN*        CLEAR     59  45  58 CALM      30.31R
MARION*        PTCLDY    56  42  57 CALM      30.34R
HILLSVILLE*    CLEAR     59  39  46 NW7       30.30R
RICHLANDS*     FAIR      58  21  24 N3        30.32R
WISE*          PTCLDY    57  37  47 CALM      30.34R
ABINGDON*      CLEAR     59  46  62 CALM      30.31R
$$

MDZ021>025-VAZ099-100-230200-
SOUTHERN MARYLAND AND THE DELMARVA PENINSULA

CITY           SKY/WX    TMP DP  RH WIND       PRES   REMARKS
PATUXENT RIVER PTCLDY    65  47  52 SW9       30.14R
BAY BRIDGE APT   N/A    N/A N/A N/A W3        30.13R
LEONARDTOWN    PTCLDY    64  46  52 SW6       30.17R
DOVER          PTCLDY    68  45  42 W13       30.08R
GEORGETOWN     CLEAR     66  46  48 SW5       30.13R
EASTON         NOT AVBL
CAMBRIDGE      PTCLDY    64  46  52 CALM      30.13R
SALISBURY      CLEAR     60  50  69 SW6       30.13R
OCEAN CITY     CLEAR     65  49  56 SW8       30.13R
WALLOPS ISLAND CLEAR     64  49  57 SW8       30.16R
ACCOMACK*      CLEAR     61  34  36 S7        30.16S
$$

NCZ012>017-030>032-230200-
NORTH CENTRAL AND EASTERN NORTH CAROLINA

CITY           SKY/WX    TMP DP  RH WIND       PRES   REMARKS
ROANOKE RAPIDS FAIR      57  50  77 CALM      30.22R
RALEIGH        PTCLDY    59  49  69 CALM      30.23R
ELIZABETH CITY CLEAR     60  53  77 SW5       30.21R
AHOSKIE*       CLEAR     57  51  79 CALM      30.23R
EDENTON*       CLEAR     62  53  72 CALM      30.22R
CURRITUCK*     CLEAR     62  51  65 CALM      30.22R
KILL DEVIL HLS CLEAR     60  46  61 S3        30.21S
MANTEO         CLEAR     60  48  62 SE6       30.23R
CAPE HATTERAS  PTCLDY    56  45  66 E5        30.23R
TARBORO*       FAIR      59  56  89 CALM      30.24R
GOLDSBORO      CLEAR     65  50  58 CALM      30.21R
WASHINGTON     PTCLDY   N/A N/A N/A CALM      30.24R
GREENVILLE     PTCLDY    63  54  72 CALM      30.24R
NEW BERN       MOCLDY    62  53  72 CALM      30.24R
WILMINGTON     PTCLDY    64  59  83 CALM      30.22R
$$

VAZ048-230200-
ELSEWHERE

CITY           SKY/WX    TMP DP  RH WIND       PRES   REMARKS
HARRISBURG PA  PTCLDY    67  25  20 NW17G28   30.12R
BALTIMORE      PTCLDY    63  44  50 W6        30.12R
ANNAPOLIS      CLEAR     69  41  36 W5        30.12R
ANDREWS AFB    CLEAR     70  41  34 W13       30.14R
PHILADELPHIA   PTCLDY    71  40  32 W12       30.08R
HENDERSON NC   CLEAR     59  50  73 CALM      30.23R
GREENSBORO     PTCLDY    67  42  40 CALM      30.23R
ROCKY MOUNT    CLEAR     59  52  77 CALM      30.23R
$$

VAZ100-230200-
MARINE

STATION/POSITION TIME  TEMP    WIND        PRES    WAVE   SWELL
                       AIR SEA DIR/SP/G            HT/PER HT/PER
                 (UTC) (F)     (DEG/KT/KT) (MB)    (FT/S) (FT/S)
BRANDYWINE LGT   0000   68 63  250/ 19/ 21 1018.5R
CAPE MAY NJ      0000   68 69  250/ 16/ 17 1018.1R
LEWES DE         0000   69 63  250/  7/ 11 1018.9R
15NM E FENWICK I 0050   64 60              1019.5R   2/ 3
OCEAN-CITY-INLET 0000   68 64  270/  8/ 10 1019.6R
WACHAPREAGUE VA  0000   67 70  240/  4/  7 1021.0R
THOMAS POINT MD  0100   71 65  280/  7/  7 1020.8R
GOOSES REEF MD   0100   69 66  250/ 10/ 12 1021.4R   2/ 3
SOLOMONS ISLAND  0000      68                N/A
BISHOPS HEAD MD  0000   69 68  230/  9/ 10 1019.8R
PINEY POINT MD   0000          260/  5/  6   N/A
CAMBRIDGE MD     0000   70 70  230/  6/ 12 1019.4R
LEWISETTA VA     0000   70 69              1020.4R
RAPPAHANNOCK LGT 0000          230/ 11/ 11 1021.6R
STINGRAY PT      0100   69 70  240/ 10/ 14 1021.2R   1
YORK RVR RNG VA  0000   71     240/  9/ 10 1020.9R
YORKTOWN VA      0000   69 71  230/  5/  6 1021.4R
JAMESTOWN VA     0100   68 74  240/  6/  6 1021.3R
DOMINION TERM VA 0000   71     260/  8/  9 1022.1R
KIPTOPEKE VA     0000      73  230/ 10/ 12   N/A
CHES BAY BRIDGE  0000   71 68  240/  8/  9 1021.7R
CAPE HENRY VA    0000   67     170/  7/  9 1020.8R
CHESAPEAKE LGHT  0000   63     200/ 14/ 15 1022.7R
WILLOUBY STN VA  0000   71     290/  7/  9 1022.6R
CAPE HENRY BUOY  0028      62                N/A     2/ 7
1ST LANDING BUOY 0100      67              1022.0R
CAPE CHARLES BUO 0026      66                N/A     2/ 6   2/ 6
OFFSHORE WE BUOY 0011      61                N/A     2/ 7   2/ 7
64NM E OF VA BCH 0050   61 61  220/  8/ 10 1022.4R   3/ 7   2/ 7
DUCK PIER NC     0000   65 67  150/  8/  9 1021.8R
44100 DUCK FRF   0024      62                N/A     3/ 7
44056 DUCK FRF   0011      65                N/A     2/ 7
OREGON INLET NC  0000   63 68   90/  2/  4 1023.1R
HATTERAS NC      0000   65 73   70/  3/  4 1023.0R
DIAMOND SHLS NC  0050   67 77   10/  8/ 10 1023.7R   3/ 8   3/ 8
CAPE LOOKOUT NC  0100   67     100/  3/  4 1023.6R
$$



USA.gov is the U.S. government's official web portal to all federal, state and local government web resources and services.